CW1490 Weather Reports


time (UTC)temp
C
wind
direction
speed
KPH
gust
KPH
rain 1hr
cm
rain 24hr
cm
rain mn
cm
humidity
%
barometer
mb
20201124181014 5 323 11.3 20.9 0.00 0.00 0.00 43 1025.5
20201124180517 5 356 11.3 19.3 0.00 0.00 0.00 45 1025.6
20201124180032 5 286 6.4 19.3 0.00 0.00 0.00 46 1025.5
20201124175524 5 246 11.3 24.1 0.00 0.00 0.00 45 1025.4
20201124175019 5 317 6.4 24.1 0.00 0.00 0.00 49 1025.4
20201124174516 5 315 11.3 22.5 0.00 0.00 0.00 46 1025.3
20201124174019 5 308 12.9 22.5 0.00 0.00 0.00 47 1025.3
20201124173521 5 3 14.5 29.0 0.00 0.00 0.00 48 1025.4
20201124173032 5 7 19.3 29.0 0.00 0.00 0.00 46 1025.2
20201124172519 5 332 11.3 20.9 0.00 0.00 0.00 46 1025.2
20201124172021 5 348 8.0 20.9 0.00 0.00 0.00 45 1025.2
20201124171528 5 290 9.7 19.3 0.00 0.00 0.00 50 1025.3
20201124171021 5 10 6.4 20.9 0.00 0.00 0.00 49 1025.4
20201124170512 5 352 8.0 19.3 0.00 0.00 0.00 49 1025.3
20201124170031 5 305 4.8 22.5 0.00 0.00 0.00 50 1025.2
20201124165510 5 354 8.0 20.9 0.00 0.00 0.00 50 1025.2
20201124165010 5 325 9.7 20.9 0.00 0.00 0.00 50 1025.2
20201124164515 5 318 9.7 20.9 0.00 0.00 0.00 50 1025.2
20201124164011 5 317 9.7 19.3 0.00 0.00 0.00 51 1025.2
20201124163507 5 315 12.9 37.0 0.00 0.00 0.00 52 1025.3
20201124163016 4 326 9.7 37.0 0.00 0.00 0.00 53 1025.3
20201124162518 4 325 9.7 17.7 0.00 0.00 0.00 53 1025.5
20201124162021 5 285 3.2 22.5 0.00 0.00 0.00 55 1025.4
20201124161514 4 286 11.3 22.5 0.00 0.00 0.00 54 1025.4
20201124161007 5 17 4.8 20.9 0.00 0.00 0.00 55 1025.4
20201124160510 5 260 8.0 20.9 0.00 0.00 0.00 54 1025.4
20201124160009 5 325 3.2 17.7 0.00 0.15 0.00 55 1025.4
20201124155100 5 242 8.0 19.3 0.00 0.15 0.00 55 1025.6
20201124154724 5 254 6.4 25.7 0.00 0.15 0.00 58 1025.6
20201124154103 4 248 9.7 25.7 0.00 0.15 0.00 57 1025.7
20201124153557 4 4 6.4 20.9 0.00 0.15 0.00 55 1025.6
20201124153205 4 315 4.8 14.5 0.00 0.15 0.00 58 1025.5
20201124152616 3 332 3.2 19.3 0.00 0.15 0.00 58 1025.5
20201124152057 3 280 4.8 22.5 0.00 0.15 0.00 59 1025.6
20201124151733 4 323 9.7 22.5 0.00 0.15 0.00 57 1025.6
20201124151153 3 275 6.4 20.9 0.00 0.15 0.00 57 1025.5
20201124150556 3 287 6.4 22.5 0.00 0.15 0.00 57 1025.5
20201124150102 3 305 8.0 22.5 0.00 0.15 0.00 57 1025.4
20201124145552 5 279 1.6 24.1 0.00 0.20 0.00 58 1025.2
20201124145052 4 327 11.3 24.1 0.00 0.20 0.00 57 1025.1
20201124144558 3 246 8.0 16.1 0.00 0.20 0.00 58 1024.9
20201124144049 3 320 3.2 19.3 0.00 0.20 0.00 60 1024.8
20201124143552 3 297 6.4 24.1 0.00 0.20 0.00 58 1024.8
20201124143124 3 268 9.7 20.9 0.00 0.20 0.00 59 1024.8
20201124142617 3 308 3.2 20.9 0.00 0.20 0.00 61 1024.8
20201124142049 3 317 0.0 17.7 0.00 0.20 0.00 59 1024.8
20201124141628 3 310 6.4 17.7 0.00 0.20 0.00 60 1024.7
20201124141045 3 302 4.8 19.3 0.00 0.20 0.00 59 1024.6
20201124140545 3 332 9.7 24.1 0.00 0.20 0.00 59 1024.5
20201124140229 3 342 16.1 24.1 0.00 0.20 0.00 60 1024.4
20201124135543 3 337 8.0 17.7 0.00 0.25 0.00 59 1024.5
20201124135104 3 321 8.0 17.7 0.00 0.25 0.00 60 1024.3
20201124134631 3 19 4.8 16.1 0.00 0.25 0.00 60 1024.3
20201124134041 3 301 8.0 19.3 0.00 0.25 0.00 61 1024.1
20201124133540 3 304 9.7 19.3 0.00 0.25 0.00 61 1024.0
20201124133055 3 6 3.2 8.0 0.00 0.25 0.00 63 1024.0
20201124132601 2 312 0.0 0.0 0.00 0.25 0.00 66 1023.9
20201124132038 3 312 0.0 3.2 0.00 0.25 0.00 62 1023.8
20201124131622 3 312 0.0 9.7 0.00 0.25 0.00 63 1023.7
20201124131035 2 317 0.0 0.0 0.00 0.25 0.00 64 1023.5
20201124130534 2 317 0.0 0.0 0.00 0.25 0.00 63 1023.4
20201124130059 3 317 0.0 4.8 0.00 0.25 0.00 63 1023.2
20201124125541 2 317 0.0 9.7 0.00 0.48 0.00 62 1023.1
20201124125042 2 309 4.8 9.7 0.00 0.48 0.00 63 1022.9
20201124124531 2 316 1.6 16.1 0.00 0.48 0.00 63 1022.9
20201124124030 2 356 4.8 16.1 0.00 0.48 0.00 62 1022.6
20201124123541 2 312 4.8 16.1 0.00 0.48 0.00 62 1022.7
20201124123053 2 308 1.6 19.3 0.00 0.48 0.00 63 1022.5
20201124122530 2 311 0.0 16.1 0.00 0.48 0.00 63 1022.4
20201124122111 2 299 4.8 19.3 0.00 0.48 0.00 63 1022.4
20201124121603 2 282 4.8 19.3 0.00 0.48 0.00 63 1022.3
20201124121133 2 265 6.4 20.9 0.00 0.48 0.00 63 1022.2
20201124120526 2 321 8.0 20.9 0.00 0.48 0.00 63 1022.1
20201124120034 2 305 3.2 24.1 0.00 0.48 0.00 63 1022.1
20201124115528 2 286 3.2 17.7 0.00 0.56 0.00 64 1022.0
20201124115054 2 280 6.4 12.9 0.00 0.56 0.00 65 1021.9
20201124114602 2 297 0.0 16.1 0.00 0.56 0.00 64 1021.9
20201124114033 2 303 1.6 20.9 0.00 0.56 0.00 64 1021.8
20201124113532 2 356 9.7 22.5 0.00 0.56 0.00 64 1021.6
20201124113022 2 328 12.9 22.5 0.00 0.56 0.00 64 1021.4
20201124112516 2 303 11.3 27.4 0.00 0.56 0.00 64 1021.4
20201124112024 2 326 9.7 27.4 0.00 0.56 0.00 64 1021.3
20201124111545 2 280 9.7 24.1 0.00 0.56 0.00 64 1021.2
20201124111020 2 327 12.9 27.4 0.00 0.56 0.00 64 1021.0
20201124110531 2 350 6.4 25.7 0.00 0.56 0.00 65 1021.0
20201124110022 2 348 9.7 25.7 0.00 0.61 0.00 66 1020.9
20201124105517 2 260 3.2 16.1 0.00 0.61 0.00 66 1020.7
20201124105027 2 324 8.0 19.3 0.00 0.61 0.00 66 1020.6
20201124104523 2 356 9.7 20.9 0.00 0.61 0.00 67 1020.6
20201124104024 2 348 6.4 24.1 0.00 0.61 0.00 67 1020.5
20201124103519 2 346 3.2 30.6 0.00 0.61 0.00 66 1020.4
20201124103020 2 323 8.0 12.9 0.00 0.61 0.00 67 1020.3
20201124102512 2 301 6.4 12.9 0.00 0.61 0.00 67 1020.2
20201124102022 2 17 4.8 17.7 0.00 0.61 0.00 66 1020.1
20201124101525 2 323 8.0 22.5 0.00 0.61 0.00 67 1020.0
20201124101008 2 337 8.0 22.5 0.00 0.61 0.00 67 1020.0
20201124100520 2 304 4.8 19.3 0.00 0.61 0.00 67 1019.9
20201124100246 2 350 6.4 19.3 0.00 0.61 0.00 67 1020.0
20201124095618 2 301 4.8 25.7 0.00 0.81 0.00 68 1019.9
20201124095100 2 352 1.6 16.1 0.00 0.81 0.00 67 1019.8
20201124094738 2 322 4.8 19.3 0.00 0.81 0.00 67 1019.8
20201124094119 2 350 4.8 19.3 0.00 0.81 0.00 67 1019.8
20201124093606 2 276 6.4 16.1 0.00 0.81 0.00 67 1019.7
20201124093420 2 284 9.7 25.7 0.00 0.81 0.00 67 1019.7
20201124092600 2 286 8.0 25.7 0.00 0.81 0.00 68 1019.7
20201124092055 2 263 4.8 14.5 0.00 0.81 0.00 68 1019.6
20201124091712 1 318 3.2 14.5 0.00 0.81 0.00 69 1019.5
20201124091058 2 288 0.0 11.3 0.00 0.81 0.00 68 1019.3
20201124090615 2 302 0.0 17.7 0.00 0.81 0.00 68 1019.2
20201124090242 2 268 8.0 17.7 0.00 0.81 0.00 68 1019.1
20201124085551 2 323 0.0 16.1 0.00 0.99 0.00 68 1018.9
20201124085057 2 308 0.0 8.0 0.00 0.99 0.00 68 1018.8
20201124084741 2 321 3.2 9.7 0.00 0.99 0.00 68 1018.8
20201124084048 2 305 0.0 16.1 0.00 0.99 0.00 67 1018.7
20201124083550 2 319 3.2 12.9 0.00 0.99 0.00 67 1018.7
20201124083132 2 306 3.2 14.5 0.00 0.99 0.00 68 1018.7
20201124082615 2 304 4.8 14.5 0.00 0.99 0.00 68 1018.7
20201124082058 2 1 4.8 16.1 0.00 0.99 0.00 68 1018.6
20201124081811 2 306 6.4 16.1 0.00 0.99 0.00 68 1018.6
20201124081052 2 242 3.2 12.9 0.00 0.99 0.00 67 1018.6
20201124080617 2 275 3.2 17.7 0.00 0.99 0.00 67 1018.6
20201124080208 2 346 8.0 24.1 0.00 0.99 0.00 66 1018.6
20201124075545 2 274 6.4 24.1 0.00 1.24 0.00 66 1018.6
20201124075047 2 263 8.0 17.7 0.00 1.24 0.00 66 1018.5
20201124074650 2 319 6.4 22.5 0.00 1.24 0.00 66 1018.4
20201124074042 2 292 9.7 22.5 0.00 1.24 0.00 66 1018.3
20201124073557 2 317 12.9 22.5 0.00 1.24 0.00 66 1018.3
20201124073119 2 312 8.0 22.5 0.00 1.24 0.00 66 1018.3
20201124072556 2 308 8.0 22.5 0.00 1.24 0.00 66 1018.1
20201124072038 2 294 8.0 19.3 0.00 1.24 0.00 67 1018.1
20201124071556 2 342 9.7 19.3 0.00 1.24 0.00 67 1018.1
20201124071042 2 328 6.4 19.3 0.00 1.24 0.00 68 1018.1
20201124070542 2 5 6.4 19.3 0.00 1.24 0.00 68 1018.1
20201124070035 2 40 6.4 17.7 0.00 1.24 0.00 67 1017.9
20201124065531 2 342 4.8 17.7 0.00 1.40 0.00 67 1017.8
20201124065034 2 27 8.0 14.5 0.00 1.40 0.00 68 1017.6
20201124064556 2 1 4.8 22.5 0.00 1.40 0.00 68 1017.7
20201124064044 2 36 3.2 20.9 0.00 1.40 0.00 68 1017.6
20201124063533 2 324 11.3 20.9 0.00 1.40 0.00 67 1017.6
20201124063052 2 299 6.4 14.5 0.00 1.40 0.00 68 1017.5
20201124062539 1 342 3.2 14.5 0.00 1.40 0.00 68 1017.5
20201124062040 2 28 8.0 24.1 0.00 1.40 0.00 67 1017.4
20201124061552 2 342 8.0 24.1 0.00 1.40 0.00 67 1017.5
20201124061036 2 337 9.7 20.9 0.00 1.40 0.00 68 1017.4
20201124060539 2 352 6.4 19.3 0.00 1.40 0.00 68 1017.4
20201124060054 2 15 6.4 25.7 0.00 1.40 0.00 67 1017.3
20201124055530 2 23 6.4 25.7 0.00 1.45 0.00 67 1017.4
20201124055055 2 30 6.4 16.1 0.00 1.45 0.00 66 1017.3
20201124054538 2 1 3.2 17.7 0.00 1.45 0.00 66 1017.3
20201124054041 2 337 8.0 19.3 0.00 1.45 0.00 66 1017.3
20201124053525 2 322 9.7 19.3 0.00 1.45 0.00 65 1017.3
20201124053108 2 26 4.8 19.3 0.00 1.45 0.00 65 1017.2
20201124052528 2 346 9.7 24.1 0.00 1.45 0.00 66 1017.2
20201124052024 2 342 3.2 24.1 0.00 1.45 0.00 66 1017.2
20201124051642 2 337 6.4 17.7 0.00 1.45 0.00 66 1017.1
20201124051021 2 22 6.4 30.6 0.00 1.45 0.00 66 1017.1
20201124050530 2 332 12.9 30.6 0.00 1.45 0.00 66 1017.0
20201124050022 2 234 6.4 19.3 0.00 1.55 1.45 67 1016.8
20201124045519 2 328 6.4 25.7 0.00 1.55 1.45 67 1016.9
20201124045037 2 327 4.8 25.7 0.00 1.55 1.45 66 1016.9
20201124044521 2 314 4.8 22.5 0.00 1.55 1.45 67 1016.9
20201124044025 2 357 6.4 22.5 0.00 1.55 1.45 67 1016.9
20201124043531 2 292 9.7 22.5 0.00 1.55 1.45 67 1016.9
20201124043030 2 296 6.4 30.6 0.00 1.55 1.45 66 1016.9
20201124042521 2 292 11.3 30.6 0.00 1.55 1.45 66 1016.9
20201124042025 2 298 6.4 22.5 0.00 1.55 1.45 67 1017.0
20201124041523 2 315 8.0 17.7 0.00 1.55 1.45 67 1016.9
20201124041027 2 258 6.4 22.5 0.00 1.55 1.45 66 1016.9
20201124040536 2 309 8.0 22.5 0.00 1.55 1.45 66 1016.9
20201124040023 2 314 4.8 20.9 0.00 1.57 1.45 67 1017.0
20201124035517 2 282 9.7 20.9 0.00 1.57 1.45 67 1017.0
20201124035026 2 294 6.4 22.5 0.00 1.57 1.45 67 1017.0
20201124034518 2 322 4.8 22.5 0.00 1.57 1.45 67 1017.0
20201124034037 2 252 4.8 22.5 0.00 1.57 1.45 67 1017.0
20201124033520 2 286 4.8 19.3 0.00 1.57 1.45 67 1016.9
20201124033020 2 317 8.0 19.3 0.00 1.57 1.45 67 1016.8
20201124032516 2 278 3.2 14.5 0.00 1.57 1.45 68 1016.8
20201124032018 2 303 1.6 20.9 0.00 1.57 1.45 67 1016.8
20201124031516 2 306 11.3 20.9 0.00 1.57 1.45 67 1016.7
20201124030615 2 298 8.0 20.9 0.00 1.57 1.45 67 1016.6
20201124030229 2 242 6.4 22.5 0.00 1.57 1.45 67 1016.6
20201124025645 2 325 11.3 22.5 0.00 1.60 1.45 68 1016.6
20201124025112 2 295 0.0 20.9 0.00 1.60 1.45 68 1016.6
20201124024855 2 17 11.3 24.1 0.00 1.60 1.45 68 1016.7
20201124024103 1 28 0.0 9.7 0.00 1.60 1.45 69 1016.7
20201124023556 2 15 1.6 12.9 0.00 1.60 1.45 68 1016.8
20201124023221 2 332 3.2 14.5 0.00 1.60 1.45 68 1016.8
20201124022608 2 360 8.0 16.1 0.00 1.60 1.45 68 1016.9
20201124022057 2 351 6.4 16.1 0.00 1.60 1.45 68 1016.8
20201124021711 2 359 0.0 12.9 0.00 1.60 1.45 68 1016.8
20201124021055 2 356 4.8 12.9 0.00 1.60 1.45 68 1016.7
20201124020555 2 356 1.6 24.1 0.00 1.60 1.45 68 1016.7
20201124020232 2 304 3.2 24.1 0.00 1.60 1.45 67 1016.8
20201124015602 2 317 11.3 22.5 0.00 1.63 1.45 67 1016.7
20201124015120 2 302 6.4 16.1 0.00 1.63 1.45 67 1016.6
20201124014657 2 322 6.4 24.1 0.00 1.63 1.45 67 1016.7
20201124014055 2 346 9.7 24.1 0.00 1.63 1.45 67 1016.8
20201124013600 2 319 8.0 14.5 0.00 1.63 1.45 68 1016.7
20201124013224 2 342 1.6 16.1 0.00 1.63 1.45 68 1016.8
20201124012550 2 312 4.8 20.9 0.00 1.63 1.45 68 1016.8
20201124012049 2 7 9.7 19.3 0.00 1.63 1.45 67 1016.8
20201124011725 2 308 1.6 12.9 0.00 1.63 1.45 68 1016.8
20201124011057 2 7 1.6 22.5 0.00 1.63 1.45 67 1016.8
20201124010553 2 19 8.0 22.5 0.00 1.63 1.45 66 1016.7
20201124010237 2 328 11.3 29.0 0.00 1.63 1.45 66 1016.7
20201124005601 2 34 9.7 29.0 0.00 1.63 1.45 66 1016.6
20201124005050 2 46 11.3 20.9 0.00 1.63 1.45 66 1016.6
20201124004652 2 332 4.8 30.6 0.00 1.63 1.45 66 1016.5
20201124004049 2 349 14.5 30.6 0.00 1.63 1.45 66 1016.4
20201124003551 2 312 16.1 24.1 0.00 1.63 1.45 66 1016.4
20201124003211 2 7 8.0 22.5 0.00 1.63 1.45 66 1016.4
20201124002542 2 342 4.8 29.0 0.00 1.63 1.45 66 1016.3
20201124002042 3 325 11.3 29.0 0.00 1.63 1.45 65 1016.5
20201124001614 3 313 1.6 25.7 0.00 1.63 1.45 66 1016.4
20201124001052 3 5 6.4 32.2 0.00 1.63 1.45 66 1016.4
20201124000600 3 321 11.3 29.0 0.00 1.63 1.45 66 1016.4
20201124000208 3 306 12.9 27.4 0.00 1.63 1.45 67 1016.3
20201123235543 3 318 8.0 24.1 0.00 1.63 1.45 68 1016.2
20201123235045 2 307 11.3 24.1 0.00 1.63 1.45 69 1016.1
20201123234615 2 308 3.2 24.1 0.00 1.63 1.45 69 1016.1
20201123234041 2 11 9.7 24.1 0.00 1.63 1.45 69 1016.1
20201123233540 3 4 8.0 14.5 0.00 1.63 1.45 69 1016.1
20201123233139 3 352 4.8 9.7 0.00 1.63 1.45 69 1016.0
20201123232606 3 332 0.0 12.9 0.00 1.63 1.45 70 1015.9
20201123232036 3 342 4.8 16.1 0.00 1.63 1.45 70 1015.7
20201123231619 3 360 0.0 16.1 0.00 1.63 1.45 70 1015.6
20201123231045 3 325 0.0 19.3 0.00 1.63 1.45 70 1015.5
20201123230534 3 325 6.4 22.5 0.00 1.63 1.45 70 1015.3
20201123230054 3 337 9.7 22.5 0.00 1.63 1.45 71 1015.3
20201123225532 3 348 0.0 6.4 0.00 1.63 1.45 73 1015.3
20201123225054 3 15 0.0 6.4 0.00 1.63 1.45 72 1015.2
20201123224607 3 15 0.0 8.0 0.00 1.63 1.45 73 1015.1
20201123224103 3 29 4.8 9.7 0.00 1.63 1.45 74 1015.0
20201123223551 3 356 0.0 9.7 0.00 1.63 1.45 74 1014.9
20201123223054 3 32 0.0 14.5 0.00 1.63 1.45 75 1014.7
20201123222531 3 60 0.0 14.5 0.00 1.63 1.45 77 1014.6
20201123222035 3 3 0.0 0.0 0.00 1.63 1.45 76 1014.6
20201123221603 3 3 0.0 4.8 0.00 1.63 1.45 74 1014.4
20201123221034 4 356 1.6 4.8 0.00 1.63 1.45 73 1014.4
20201123220532 4 312 0.0 3.2 0.00 1.63 1.45 72 1014.3
20201123220127 4 309 0.0 4.8 0.00 1.63 1.45 70 1014.1
20201123215537 5 308 0.0 8.0 0.00 1.63 1.45 70 1014.1
20201123215038 5 313 1.6 16.1 0.00 1.63 1.45 69 1013.9
20201123214543 5 269 3.2 16.1 0.00 1.63 1.45 70 1013.9
20201123214045 5 278 8.0 16.1 0.00 1.63 1.45 69 1013.7
20201123213534 5 278 8.0 19.3 0.00 1.63 1.45 69 1013.6
20201123213110 5 246 3.2 9.7 0.00 1.63 1.45 69 1013.5
20201123212531 5 238 0.0 17.7 0.00 1.63 1.45 69 1013.3
20201123212035 5 288 1.6 19.3 0.00 1.63 1.45 69 1013.0
20201123211542 5 327 4.8 19.3 0.00 1.63 1.45 69 1013.0
20201123211030 5 267 1.6 16.1 0.00 1.63 1.45 69 1012.8
20201123210528 5 265 4.8 16.1 0.00 1.63 1.45 69 1012.8
20201123210130 5 273 0.0 16.1 0.00 1.63 1.45 69 1012.6
20201123205534 6 311 4.8 16.1 0.00 1.63 1.45 68 1012.5
20201123205033 6 290 0.0 12.9 0.00 1.63 1.45 68 1012.4
20201123204545 6 296 4.8 17.7 0.00 1.63 1.45 67 1012.4
20201123204027 6 292 4.8 19.3 0.00 1.63 1.45 67 1012.4
20201123203527 6 23 9.7 17.7 0.00 1.63 1.45 66 1012.3
20201123203101 6 203 4.8 12.9 0.00 1.63 1.45 68 1012.2
20201123202551 6 347 4.8 9.7 0.00 1.63 1.45 67 1012.1
20201123202035 7 307 1.6 12.9 0.00 1.63 1.45 66 1012.0
20201123201535 7 1 0.0 14.5 0.00 1.63 1.45 67 1011.7
20201123201051 7 346 6.4 30.6 0.00 1.63 1.45 66 1011.5
20201123200525 7 308 16.1 30.6 0.00 1.63 1.45 65 1011.6
20201123200117 7 303 1.6 24.1 0.00 1.63 1.45 65 1011.5
20201123195525 7 327 0.0 19.3 0.00 1.63 1.45 67 1011.4
20201123195037 7 301 3.2 24.1 0.00 1.63 1.45 68 1011.2
20201123194543 7 276 11.3 25.7 0.00 1.63 1.45 66 1011.2
20201123194031 7 2 4.8 27.4 0.00 1.63 1.45 67 1011.0
20201123193526 8 252 8.0 25.7 0.00 1.63 1.45 69 1010.8
20201123193031 8 298 0.0 20.9 0.00 1.63 1.45 68 1010.7
20201123192528 7 1 8.0 27.4 0.00 1.63 1.45 69 1010.5
20201123192023 7 275 8.0 29.0 0.00 1.63 1.45 68 1010.4
20201123191545 7 281 9.7 29.0 0.00 1.63 1.45 69 1010.4
20201123191026 7 297 8.0 24.1 0.00 1.63 1.45 70 1010.2
20201123190530 7 352 9.7 27.4 0.00 1.63 1.45 71 1010.2
20201123190043 7 342 8.0 29.0 0.00 1.63 1.45 70 1010.1
20201123185535 7 285 8.0 29.0 0.00 1.63 1.45 71 1010.1
20201123185037 7 327 6.4 14.5 0.00 1.63 1.45 73 1010.1
20201123184634 7 261 3.2 17.7 0.00 1.63 1.45 74 1010.2
20201123184021 7 304 3.2 17.7 0.00 1.63 1.45 73 1010.4
20201123183518 7 268 6.4 17.7 0.00 1.63 1.45 74 1010.4
20201123183021 7 319 3.2 17.7 0.00 1.63 1.45 74 1010.6
20201123182518 8 270 6.4 19.3 0.00 1.63 1.45 74 1010.4
20201123182021 7 358 4.8 19.3 0.00 1.63 1.45 77 1010.7
20201123181557 7 245 4.8 17.7 0.00 1.63 1.45 78 1010.7